Time,TemperatureF,DewpointF,PressureIn,WindDirection,WindDirectionDegrees,WindSpeedMPH,WindSpeedGustMPH,Humidity,HourlyPrecipIn,Conditions,Clouds,dailyrainin,SoftwareType,DateUTC
2013-03-02 00:00:00,56.2,40.6,29.98,North,0,0.0,0.0,56,0.00,,,0.00,WUHU216HW,2013-03-02 05:00:00,
2013-03-02 00:01:00,56.0,40.4,29.98,North,0,0.0,0.0,56,0.00,,,0.00,WUHU216HW,2013-03-02 05:01:00,
2013-03-02 00:06:00,55.8,40.2,29.98,North,0,0.0,0.0,56,0.00,,,0.00,WUHU216HW,2013-03-02 05:06:00,
2013-03-02 00:11:00,55.8,40.2,29.98,North,0,0.0,0.0,56,0.00,,,0.00,WUHU216HW,2013-03-02 05:11:00,
2013-03-02 00:16:00,56.0,40.4,29.97,North,0,0.0,0.0,56,0.00,,,0.00,WUHU216HW,2013-03-02 05:16:00,
2013-03-02 00:21:00,55.8,40.2,29.97,North,0,0.0,0.0,56,0.00,,,0.00,WUHU216HW,2013-03-02 05:21:00,
2013-03-02 00:26:00,55.8,40.2,29.97,North,0,0.0,0.0,56,0.00,,,0.00,WUHU216HW,2013-03-02 05:26:00,
2013-03-02 00:31:00,55.8,40.2,29.98,North,0,0.0,0.0,56,0.00,,,0.00,WUHU216HW,2013-03-02 05:31:00,
2013-03-02 00:36:00,55.8,40.2,29.98,North,0,0.0,0.0,56,0.00,,,0.00,WUHU216HW,2013-03-02 05:36:00,
2013-03-02 00:41:00,55.8,40.7,29.98,North,0,0.0,0.0,57,0.00,,,0.00,WUHU216HW,2013-03-02 05:41:00,
2013-03-02 00:46:00,55.8,40.7,29.98,North,0,0.0,0.0,57,0.00,,,0.00,WUHU216HW,2013-03-02 05:46:00,
2013-03-02 00:51:00,55.8,40.2,29.98,North,0,0.0,0.0,56,0.00,,,0.00,WUHU216HW,2013-03-02 05:51:00,
2013-03-02 00:56:00,55.8,40.2,29.98,North,0,0.0,0.0,56,0.00,,,0.00,WUHU216HW,2013-03-02 05:56:00,
2013-03-02 01:01:00,55.8,40.2,29.98,North,0,0.0,0.0,56,0.00,,,0.00,WUHU216HW,2013-03-02 06:01:00,
2013-03-02 01:06:00,55.6,40.1,29.98,North,0,0.0,0.0,56,0.00,,,0.00,WUHU216HW,2013-03-02 06:06:00,
2013-03-02 01:11:00,55.6,40.1,29.98,North,0,0.0,0.0,56,0.00,,,0.00,WUHU216HW,2013-03-02 06:11:00,
2013-03-02 01:16:00,55.6,40.1,29.98,North,0,0.0,0.0,56,0.00,,,0.00,WUHU216HW,2013-03-02 06:16:00,
2013-03-02 01:21:00,55.6,40.1,29.97,North,0,0.0,0.0,56,0.00,,,0.00,WUHU216HW,2013-03-02 06:21:00,
2013-03-02 01:26:00,55.6,39.6,29.98,North,0,0.0,0.0,55,0.00,,,0.00,WUHU216HW,2013-03-02 06:26:00,
2013-03-02 01:31:00,55.6,39.6,29.98,North,0,0.0,0.0,55,0.00,,,0.00,WUHU216HW,2013-03-02 06:31:00,
2013-03-02 01:36:00,55.8,39.8,29.98,North,0,0.0,0.0,55,0.00,,,0.00,WUHU216HW,2013-03-02 06:36:00,
2013-03-02 01:41:00,55.6,39.2,29.98,North,0,0.0,0.0,54,0.00,,,0.00,WUHU216HW,2013-03-02 06:41:00,
2013-03-02 01:46:00,55.4,38.5,29.98,North,0,0.0,0.0,53,0.00,,,0.00,WUHU216HW,2013-03-02 06:46:00,
2013-03-02 01:51:00,55.4,39.0,29.98,North,0,0.0,0.0,54,0.00,,,0.00,WUHU216HW,2013-03-02 06:51:00,
2013-03-02 01:56:00,55.4,39.0,29.98,North,0,0.0,0.0,54,0.00,,,0.00,WUHU216HW,2013-03-02 06:56:00,
2013-03-02 02:01:00,55.1,38.6,29.98,North,0,0.0,0.0,54,0.00,,,0.00,WUHU216HW,2013-03-02 07:01:00,
2013-03-02 02:06:00,55.1,38.2,29.98,North,0,0.0,0.0,53,0.00,,,0.00,WUHU216HW,2013-03-02 07:06:00,
2013-03-02 02:11:00,54.9,38.0,29.98,North,0,0.0,0.0,53,0.00,,,0.00,WUHU216HW,2013-03-02 07:11:00,
2013-03-02 02:16:00,54.7,37.8,29.98,North,0,0.0,0.0,53,0.00,,,0.00,WUHU216HW,2013-03-02 07:16:00,
2013-03-02 02:21:00,54.7,37.8,29.98,North,0,0.0,0.0,53,0.00,,,0.00,WUHU216HW,2013-03-02 07:21:00,
2013-03-02 02:26:00,54.7,37.8,29.98,North,0,0.0,0.0,53,0.00,,,0.00,WUHU216HW,2013-03-02 07:26:00,
2013-03-02 02:31:00,54.5,37.7,29.98,North,0,0.0,0.0,53,0.00,,,0.00,WUHU216HW,2013-03-02 07:31:00,
2013-03-02 02:36:00,54.5,38.2,29.98,North,0,0.0,0.0,54,0.00,,,0.00,WUHU216HW,2013-03-02 07:36:00,
2013-03-02 02:41:00,54.4,38.0,29.98,North,0,0.0,0.0,54,0.00,,,0.00,WUHU216HW,2013-03-02 07:41:00,
2013-03-02 02:46:00,54.4,38.0,29.98,North,0,0.0,0.0,54,0.00,,,0.00,WUHU216HW,2013-03-02 07:46:00,
2013-03-02 02:51:00,54.4,38.0,29.98,North,0,0.0,0.0,54,0.00,,,0.00,WUHU216HW,2013-03-02 07:51:00,
2013-03-02 02:56:00,54.4,38.0,29.98,North,0,0.0,0.0,54,0.00,,,0.00,WUHU216HW,2013-03-02 07:56:00,
2013-03-02 03:01:00,54.4,38.0,29.98,North,0,0.0,0.0,54,0.00,,,0.00,WUHU216HW,2013-03-02 08:01:00,
2013-03-02 03:06:00,54.4,38.0,29.98,North,0,0.0,0.0,54,0.00,,,0.00,WUHU216HW,2013-03-02 08:06:00,
2013-03-02 03:11:00,54.2,37.8,29.98,North,0,0.0,0.0,54,0.00,,,0.00,WUHU216HW,2013-03-02 08:11:00,
2013-03-02 03:16:00,54.0,37.6,29.98,North,0,0.0,0.0,54,0.00,,,0.00,WUHU216HW,2013-03-02 08:16:00,
2013-03-02 03:21:00,54.0,37.2,29.97,North,0,0.0,0.0,53,0.00,,,0.00,WUHU216HW,2013-03-02 08:21:00,
2013-03-02 03:26:00,54.0,37.2,29.97,North,0,0.0,0.0,53,0.00,,,0.00,WUHU216HW,2013-03-02 08:26:00,
2013-03-02 03:31:00,54.2,37.4,29.98,North,0,0.0,0.0,53,0.00,,,0.00,WUHU216HW,2013-03-02 08:31:00,
2013-03-02 03:36:00,54.2,37.4,29.97,North,0,0.0,0.0,53,0.00,,,0.00,WUHU216HW,2013-03-02 08:36:00,
2013-03-02 03:41:00,54.4,37.5,29.98,North,0,0.0,0.0,53,0.00,,,0.00,WUHU216HW,2013-03-02 08:41:00,
2013-03-02 03:46:00,54.2,37.4,29.98,North,0,0.0,0.0,53,0.00,,,0.00,WUHU216HW,2013-03-02 08:46:00,
2013-03-02 03:51:00,54.2,37.4,29.98,North,0,0.0,0.0,53,0.00,,,0.00,WUHU216HW,2013-03-02 08:51:00,
2013-03-02 03:56:00,54.0,37.2,29.98,North,0,0.0,0.0,53,0.00,,,0.00,WUHU216HW,2013-03-02 08:56:00,
2013-03-02 04:01:00,54.0,37.2,29.98,North,0,0.0,0.0,53,0.00,,,0.00,WUHU216HW,2013-03-02 09:01:00,
2013-03-02 04:06:00,54.0,37.2,29.98,North,0,0.0,0.0,53,0.00,,,0.00,WUHU216HW,2013-03-02 09:06:00,
2013-03-02 04:11:00,54.0,36.7,29.98,North,0,0.0,0.0,52,0.00,,,0.00,WUHU216HW,2013-03-02 09:11:00,
2013-03-02 04:16:00,54.0,37.2,29.98,North,0,0.0,0.0,53,0.00,,,0.00,WUHU216HW,2013-03-02 09:16:00,
2013-03-02 04:21:00,54.0,36.7,29.98,North,0,0.0,0.0,52,0.00,,,0.00,WUHU216HW,2013-03-02 09:21:00,
2013-03-02 04:26:00,54.0,36.7,29.98,North,0,0.0,0.0,52,0.00,,,0.00,WUHU216HW,2013-03-02 09:26:00,
2013-03-02 04:31:00,53.8,36.5,29.98,North,0,0.0,0.0,52,0.00,,,0.00,WUHU216HW,2013-03-02 09:31:00,
2013-03-02 04:36:00,53.8,37.0,29.98,North,0,0.0,0.0,53,0.00,,,0.00,WUHU216HW,2013-03-02 09:36:00,
2013-03-02 04:41:00,53.8,37.0,29.98,North,0,0.0,0.0,53,0.00,,,0.00,WUHU216HW,2013-03-02 09:41:00,
2013-03-02 04:46:00,53.6,36.9,29.98,North,0,0.0,0.0,53,0.00,,,0.00,WUHU216HW,2013-03-02 09:46:00,
2013-03-02 04:51:00,53.8,37.5,29.98,North,0,0.0,0.0,54,0.00,,,0.00,WUHU216HW,2013-03-02 09:51:00,
2013-03-02 04:56:00,53.6,36.9,29.99,North,0,0.0,0.0,53,0.00,,,0.00,WUHU216HW,2013-03-02 09:56:00,
2013-03-02 05:01:00,53.6,36.9,29.99,North,0,0.0,0.0,53,0.00,,,0.00,WUHU216HW,2013-03-02 10:01:00,
2013-03-02 05:06:00,53.6,36.9,29.99,North,0,0.0,0.0,53,0.00,,,0.00,WUHU216HW,2013-03-02 10:06:00,
2013-03-02 05:11:00,53.6,36.9,29.99,North,0,0.0,0.0,53,0.00,,,0.00,WUHU216HW,2013-03-02 10:11:00,
2013-03-02 05:16:00,53.6,37.4,29.98,North,0,0.0,0.0,54,0.00,,,0.00,WUHU216HW,2013-03-02 10:16:00,
2013-03-02 05:21:00,53.6,37.4,29.98,North,0,0.0,0.0,54,0.00,,,0.00,WUHU216HW,2013-03-02 10:21:00,
2013-03-02 05:26:00,53.6,36.9,29.98,North,0,0.0,0.0,53,0.00,,,0.00,WUHU216HW,2013-03-02 10:26:00,
2013-03-02 05:31:00,53.5,36.7,29.98,North,0,0.0,0.0,53,0.00,,,0.00,WUHU216HW,2013-03-02 10:31:00,
2013-03-02 05:36:00,53.1,36.4,29.98,North,0,0.0,0.0,53,0.00,,,0.00,WUHU216HW,2013-03-02 10:36:00,
2013-03-02 05:41:00,52.9,36.2,29.98,North,0,0.0,0.0,53,0.00,,,0.00,WUHU216HW,2013-03-02 10:41:00,
2013-03-02 05:46:00,52.9,36.2,29.97,North,0,0.0,0.0,53,0.00,,,0.00,WUHU216HW,2013-03-02 10:46:00,
2013-03-02 05:51:00,52.7,35.6,29.97,North,0,0.0,0.0,52,0.00,,,0.00,WUHU216HW,2013-03-02 10:51:00,
2013-03-02 05:56:00,52.6,35.8,29.97,North,0,0.0,0.0,53,0.00,,,0.00,WUHU216HW,2013-03-02 10:56:00,
2013-03-02 06:01:00,52.6,35.8,29.96,North,0,0.0,0.0,53,0.00,,,0.00,WUHU216HW,2013-03-02 11:01:00,
2013-03-02 06:06:00,52.6,35.8,29.97,North,0,0.0,0.0,53,0.00,,,0.00,WUHU216HW,2013-03-02 11:06:00,
2013-03-02 06:11:00,52.6,35.8,29.96,North,0,0.0,0.0,53,0.00,,,0.00,WUHU216HW,2013-03-02 11:11:00,
2013-03-02 06:16:00,52.4,35.7,29.97,North,0,0.0,0.0,53,0.00,,,0.00,WUHU216HW,2013-03-02 11:16:00,
2013-03-02 06:21:00,52.2,35.6,29.97,North,0,0.0,0.0,53,0.00,,,0.00,WUHU216HW,2013-03-02 11:21:00,
2013-03-02 06:26:00,52.4,35.7,29.97,North,0,0.0,0.0,53,0.00,,,0.00,WUHU216HW,2013-03-02 11:26:00,
2013-03-02 06:31:00,52.2,35.6,29.97,North,0,0.0,0.0,53,0.00,,,0.00,WUHU216HW,2013-03-02 11:31:00,
2013-03-02 06:36:00,52.0,35.4,29.97,North,0,0.0,0.0,53,0.00,,,0.00,WUHU216HW,2013-03-02 11:36:00,
2013-03-02 06:41:00,51.7,35.0,29.97,North,0,0.0,0.0,53,0.00,,,0.00,WUHU216HW,2013-03-02 11:41:00,
2013-03-02 06:46:00,51.3,35.2,29.97,North,0,0.0,0.0,54,0.00,,,0.00,WUHU216HW,2013-03-02 11:46:00,
2013-03-02 06:51:00,50.8,34.7,29.98,North,0,0.0,0.0,54,0.00,,,0.00,WUHU216HW,2013-03-02 11:51:00,
2013-03-02 06:56:00,50.8,35.1,29.98,North,0,0.0,0.0,55,0.00,,,0.00,WUHU216HW,2013-03-02 11:56:00,
2013-03-02 07:01:00,50.9,35.7,29.98,North,0,0.0,0.0,56,0.00,,,0.00,WUHU216HW,2013-03-02 12:01:00,
2013-03-02 07:06:00,51.1,35.5,29.98,North,0,0.0,0.0,55,0.00,,,0.00,WUHU216HW,2013-03-02 12:06:00,
2013-03-02 07:11:00,51.1,35.5,29.98,North,0,0.0,0.0,55,0.00,,,0.00,WUHU216HW,2013-03-02 12:11:00,
2013-03-02 07:16:00,51.3,35.7,29.98,North,0,0.0,0.0,55,0.00,,,0.00,WUHU216HW,2013-03-02 12:16:00,
2013-03-02 07:21:00,51.3,35.7,29.98,North,0,0.0,0.0,55,0.00,,,0.00,WUHU216HW,2013-03-02 12:21:00,
2013-03-02 07:26:00,51.3,35.7,29.98,North,0,0.0,0.0,55,0.00,,,0.00,WUHU216HW,2013-03-02 12:26:00,
2013-03-02 07:31:00,51.3,35.7,29.98,North,0,0.0,0.0,55,0.00,,,0.00,WUHU216HW,2013-03-02 12:31:00,
2013-03-02 07:36:00,51.5,35.7,29.98,North,0,0.0,0.0,55,0.00,,,0.00,WUHU216HW,2013-03-02 12:36:00,
2013-03-02 07:41:00,51.7,35.9,29.98,North,0,0.0,0.0,55,0.00,,,0.00,WUHU216HW,2013-03-02 12:41:00,
2013-03-02 07:46:00,51.7,35.9,29.98,North,0,0.0,0.0,55,0.00,,,0.00,WUHU216HW,2013-03-02 12:46:00,
2013-03-02 07:51:00,52.0,35.8,29.99,North,0,0.0,0.0,54,0.00,,,0.00,WUHU216HW,2013-03-02 12:51:00,
2013-03-02 07:56:00,52.2,36.0,29.98,North,0,0.0,0.0,54,0.00,,,0.00,WUHU216HW,2013-03-02 12:56:00,
2013-03-02 08:01:00,52.2,35.6,29.98,North,0,0.0,0.0,53,0.00,,,0.00,WUHU216HW,2013-03-02 13:01:00,
2013-03-02 08:06:00,52.4,35.3,29.98,North,0,0.0,0.0,52,0.00,,,0.00,WUHU216HW,2013-03-02 13:06:00,
2013-03-02 08:11:00,52.4,35.7,29.98,North,0,0.0,0.0,53,0.00,,,0.00,WUHU216HW,2013-03-02 13:11:00,
2013-03-02 08:16:00,52.4,35.7,29.99,North,0,0.0,0.0,53,0.00,,,0.00,WUHU216HW,2013-03-02 13:16:00,
2013-03-02 08:21:00,52.6,35.8,29.99,North,0,0.0,0.0,53,0.00,,,0.00,WUHU216HW,2013-03-02 13:21:00,
2013-03-02 08:26:00,52.6,35.8,30.00,North,0,0.0,0.0,53,0.00,,,0.00,WUHU216HW,2013-03-02 13:26:00,
2013-03-02 08:31:00,52.7,36.0,30.00,North,0,0.0,0.0,53,0.00,,,0.00,WUHU216HW,2013-03-02 13:31:00,
2013-03-02 08:36:00,52.9,36.2,30.00,North,0,0.0,0.0,53,0.00,,,0.00,WUHU216HW,2013-03-02 13:36:00,
2013-03-02 08:41:00,52.9,36.2,30.00,North,0,0.0,0.0,53,0.00,,,0.00,WUHU216HW,2013-03-02 13:41:00,
2013-03-02 08:46:00,53.3,36.1,30.00,North,0,0.0,0.0,52,0.00,,,0.00,WUHU216HW,2013-03-02 13:46:00,
2013-03-02 08:51:00,53.3,36.1,30.00,North,0,0.0,0.0,52,0.00,,,0.00,WUHU216HW,2013-03-02 13:51:00,
2013-03-02 08:56:00,53.5,35.7,30.00,North,0,0.0,0.0,51,0.00,,,0.00,WUHU216HW,2013-03-02 13:56:00,
2013-03-02 09:01:00,53.6,35.9,30.00,North,0,0.0,0.0,51,0.00,,,0.00,WUHU216HW,2013-03-02 14:01:00,
2013-03-02 09:06:00,53.8,35.1,30.00,North,0,0.0,0.0,49,0.00,,,0.00,WUHU216HW,2013-03-02 14:06:00,
2013-03-02 09:11:00,54.0,35.8,30.00,North,0,0.0,0.0,50,0.00,,,0.00,WUHU216HW,2013-03-02 14:11:00,
2013-03-02 09:16:00,54.4,36.5,30.00,North,0,0.0,0.0,51,0.00,,,0.00,WUHU216HW,2013-03-02 14:16:00,
2013-03-02 09:21:00,54.4,36.5,30.00,North,0,0.0,0.0,51,0.00,,,0.00,WUHU216HW,2013-03-02 14:21:00,
2013-03-02 09:26:00,54.7,36.5,30.00,North,0,0.0,0.0,50,0.00,,,0.00,WUHU216HW,2013-03-02 14:26:00,
2013-03-02 09:31:00,55.1,36.7,30.00,North,0,0.0,0.0,50,0.00,,,0.00,WUHU216HW,2013-03-02 14:31:00,
2013-03-02 09:36:00,55.4,37.1,30.00,North,0,0.0,0.0,50,0.00,,,0.00,WUHU216HW,2013-03-02 14:36:00,
2013-03-02 09:41:00,55.8,37.4,30.00,North,0,0.0,0.0,50,0.00,,,0.00,WUHU216HW,2013-03-02 14:41:00,
2013-03-02 09:46:00,56.2,37.8,30.00,North,0,0.0,0.0,50,0.00,,,0.00,WUHU216HW,2013-03-02 14:46:00,
2013-03-02 09:51:00,56.2,37.8,30.00,North,0,0.0,0.0,50,0.00,,,0.00,WUHU216HW,2013-03-02 14:51:00,
2013-03-02 09:56:00,56.2,37.3,30.00,North,0,0.0,0.0,49,0.00,,,0.00,WUHU216HW,2013-03-02 14:56:00,
2013-03-02 10:01:00,56.2,37.8,30.00,North,0,0.0,0.0,50,0.00,,,0.00,WUHU216HW,2013-03-02 15:01:00,
2013-03-02 10:06:00,56.2,37.8,30.00,North,0,0.0,0.0,50,0.00,,,0.00,WUHU216HW,2013-03-02 15:06:00,
2013-03-02 10:11:00,56.3,38.4,30.00,North,0,0.0,0.0,51,0.00,,,0.00,WUHU216HW,2013-03-02 15:11:00,
2013-03-02 10:16:00,56.2,37.8,30.00,North,0,0.0,0.0,50,0.00,,,0.00,WUHU216HW,2013-03-02 15:16:00,
2013-03-02 10:21:00,56.5,39.1,30.00,North,0,0.0,0.0,52,0.00,,,0.00,WUHU216HW,2013-03-02 15:21:00,
2013-03-02 10:26:00,56.9,39.4,30.00,North,0,0.0,0.0,52,0.00,,,0.00,WUHU216HW,2013-03-02 15:26:00,
2013-03-02 10:31:00,57.2,39.3,30.00,North,0,0.0,0.0,51,0.00,,,0.00,WUHU216HW,2013-03-02 15:31:00,
2013-03-02 10:36:00,57.2,38.9,30.00,North,0,0.0,0.0,50,0.00,,,0.00,WUHU216HW,2013-03-02 15:36:00,
2013-03-02 10:41:00,57.2,38.9,30.01,North,0,0.0,0.0,50,0.00,,,0.00,WUHU216HW,2013-03-02 15:41:00,
2013-03-02 10:46:00,57.6,39.3,30.01,North,0,0.0,0.0,50,0.00,,,0.00,WUHU216HW,2013-03-02 15:46:00,
2013-03-02 10:51:00,58.0,39.5,30.01,North,0,0.0,0.0,50,0.00,,,0.00,WUHU216HW,2013-03-02 15:51:00,
2013-03-02 10:56:00,58.1,39.7,30.00,North,0,0.0,0.0,50,0.00,,,0.00,WUHU216HW,2013-03-02 15:56:00,
2013-03-02 11:01:00,58.7,40.1,30.00,North,0,0.0,0.0,50,0.00,,,0.00,WUHU216HW,2013-03-02 16:01:00,
2013-03-02 11:06:00,59.0,40.5,30.00,North,0,0.0,0.0,50,0.00,,,0.00,WUHU216HW,2013-03-02 16:06:00,
2013-03-02 11:11:00,59.6,41.0,30.00,North,0,0.0,0.0,50,0.00,,,0.00,WUHU216HW,2013-03-02 16:11:00,
2013-03-02 11:16:00,60.1,40.9,30.00,North,0,0.0,0.0,49,0.00,,,0.00,WUHU216HW,2013-03-02 16:16:00,
2013-03-02 11:21:00,60.7,40.8,30.01,North,0,0.0,0.0,48,0.00,,,0.00,WUHU216HW,2013-03-02 16:21:00,
2013-03-02 11:26:00,61.0,41.1,30.01,North,0,0.0,0.0,48,0.00,,,0.00,WUHU216HW,2013-03-02 16:26:00,
2013-03-02 11:31:00,61.2,40.7,30.00,North,0,0.0,0.0,47,0.00,,,0.00,WUHU216HW,2013-03-02 16:31:00,
2013-03-02 11:36:00,61.0,40.6,30.01,North,0,0.0,0.0,47,0.00,,,0.00,WUHU216HW,2013-03-02 16:36:00,
2013-03-02 11:41:00,61.2,40.7,30.01,North,0,0.0,0.0,47,0.00,,,0.00,WUHU216HW,2013-03-02 16:41:00,
2013-03-02 11:46:00,61.4,40.3,30.00,North,0,0.0,0.0,46,0.00,,,0.00,WUHU216HW,2013-03-02 16:46:00,
2013-03-02 11:51:00,61.2,40.1,30.00,North,0,0.0,0.0,46,0.00,,,0.00,WUHU216HW,2013-03-02 16:51:00,
2013-03-02 11:56:00,61.0,40.0,30.00,North,0,0.0,0.0,46,0.00,,,0.00,WUHU216HW,2013-03-02 16:56:00,
2013-03-02 12:01:00,61.0,40.0,30.00,North,0,0.0,0.0,46,0.00,,,0.00,WUHU216HW,2013-03-02 17:01:00,
2013-03-02 12:06:00,61.0,39.4,30.00,North,0,0.0,0.0,45,0.00,,,0.00,WUHU216HW,2013-03-02 17:06:00,
2013-03-02 12:11:00,61.0,40.0,30.00,North,0,0.0,0.0,46,0.00,,,0.00,WUHU216HW,2013-03-02 17:11:00,
2013-03-02 12:16:00,60.5,38.9,29.99,North,0,0.0,0.0,45,0.00,,,0.00,WUHU216HW,2013-03-02 17:16:00,
2013-03-02 12:21:00,60.3,38.8,29.99,North,0,0.0,0.0,45,0.00,,,0.00,WUHU216HW,2013-03-02 17:21:00,
2013-03-02 12:26:00,59.9,38.4,29.99,North,0,0.0,0.0,45,0.00,,,0.00,WUHU216HW,2013-03-02 17:26:00,
2013-03-02 12:31:00,59.8,38.3,29.99,North,0,0.0,0.0,45,0.00,,,0.00,WUHU216HW,2013-03-02 17:31:00,
2013-03-02 12:36:00,59.8,38.3,29.99,North,0,0.0,0.0,45,0.00,,,0.00,WUHU216HW,2013-03-02 17:36:00,
2013-03-02 12:41:00,59.8,37.7,29.99,North,0,0.0,0.0,44,0.00,,,0.00,WUHU216HW,2013-03-02 17:41:00,
2013-03-02 12:46:00,59.8,38.3,29.98,North,0,0.0,0.0,45,0.00,,,0.00,WUHU216HW,2013-03-02 17:46:00,
2013-03-02 12:51:00,59.9,37.9,29.98,North,0,0.0,0.0,44,0.00,,,0.00,WUHU216HW,2013-03-02 17:51:00,
2013-03-02 12:56:00,59.9,37.9,29.98,North,0,0.0,0.0,44,0.00,,,0.00,WUHU216HW,2013-03-02 17:56:00,
2013-03-02 13:01:00,60.1,36.3,29.98,North,0,0.0,0.0,41,0.00,,,0.00,WUHU216HW,2013-03-02 18:01:00,
2013-03-02 13:06:00,60.1,35.7,29.98,North,0,0.0,0.0,40,0.00,,,0.00,WUHU216HW,2013-03-02 18:06:00,
2013-03-02 13:11:00,60.1,35.7,29.97,North,0,0.0,0.0,40,0.00,,,0.00,WUHU216HW,2013-03-02 18:11:00,
2013-03-02 13:16:00,60.3,35.9,29.97,North,0,0.0,0.0,40,0.00,,,0.00,WUHU216HW,2013-03-02 18:16:00,
2013-03-02 13:21:00,60.5,35.3,29.97,North,0,0.0,0.0,39,0.00,,,0.00,WUHU216HW,2013-03-02 18:21:00,
2013-03-02 13:26:00,60.5,35.3,29.96,North,0,0.0,0.0,39,0.00,,,0.00,WUHU216HW,2013-03-02 18:26:00,
2013-03-02 13:31:00,60.8,35.6,29.95,North,0,0.0,0.0,39,0.00,,,0.00,WUHU216HW,2013-03-02 18:31:00,
2013-03-02 13:36:00,60.8,34.2,29.95,North,0,0.0,0.0,37,0.00,,,0.00,WUHU216HW,2013-03-02 18:36:00,
2013-03-02 13:41:00,60.8,34.2,29.95,North,0,0.0,0.0,37,0.00,,,0.00,WUHU216HW,2013-03-02 18:41:00,
2013-03-02 13:46:00,61.0,34.4,29.95,North,0,0.0,0.0,37,0.00,,,0.00,WUHU216HW,2013-03-02 18:46:00,
2013-03-02 13:51:00,61.2,35.3,29.94,North,0,0.0,0.0,38,0.00,,,0.00,WUHU216HW,2013-03-02 18:51:00,
2013-03-02 13:56:00,61.0,34.4,29.94,North,0,0.0,0.0,37,0.00,,,0.00,WUHU216HW,2013-03-02 18:56:00,
2013-03-02 14:01:00,60.8,34.2,29.94,North,0,0.0,0.0,37,0.00,,,0.00,WUHU216HW,2013-03-02 19:01:00,
2013-03-02 14:06:00,60.8,34.2,29.94,North,0,0.0,0.0,37,0.00,,,0.00,WUHU216HW,2013-03-02 19:06:00,
2013-03-02 14:11:00,60.8,34.2,29.94,North,0,0.0,0.0,37,0.00,,,0.00,WUHU216HW,2013-03-02 19:11:00,
2013-03-02 14:16:00,60.8,34.2,29.94,North,0,0.0,0.0,37,0.00,,,0.00,WUHU216HW,2013-03-02 19:16:00,
2013-03-02 14:21:00,60.5,33.9,29.93,North,0,0.0,0.0,37,0.00,,,0.00,WUHU216HW,2013-03-02 19:21:00,
2013-03-02 14:26:00,60.3,33.8,29.93,North,0,0.0,0.0,37,0.00,,,0.00,WUHU216HW,2013-03-02 19:26:00,
2013-03-02 14:31:00,60.3,33.8,29.93,North,0,0.0,0.0,37,0.00,,,0.00,WUHU216HW,2013-03-02 19:31:00,
2013-03-02 14:36:00,60.1,32.9,29.94,North,0,0.0,0.0,36,0.00,,,0.00,WUHU216HW,2013-03-02 19:36:00,
2013-03-02 14:41:00,59.9,33.4,29.93,North,0,0.0,0.0,37,0.00,,,0.00,WUHU216HW,2013-03-02 19:41:00,
2013-03-02 14:46:00,59.9,34.1,29.93,North,0,0.0,0.0,38,0.00,,,0.00,WUHU216HW,2013-03-02 19:46:00,
2013-03-02 14:51:00,59.9,34.1,29.93,North,0,0.0,0.0,38,0.00,,,0.00,WUHU216HW,2013-03-02 19:51:00,
2013-03-02 14:56:00,59.9,34.1,29.92,North,0,0.0,0.0,38,0.00,,,0.00,WUHU216HW,2013-03-02 19:56:00,
2013-03-02 15:01:00,59.9,34.1,29.92,North,0,0.0,0.0,38,0.00,,,0.00,WUHU216HW,2013-03-02 20:01:00,
2013-03-02 15:06:00,59.9,34.1,29.92,North,0,0.0,0.0,38,0.00,,,0.00,WUHU216HW,2013-03-02 20:06:00,
2013-03-02 15:11:00,59.8,33.9,29.92,North,0,0.0,0.0,38,0.00,,,0.00,WUHU216HW,2013-03-02 20:11:00,
2013-03-02 15:16:00,59.4,33.7,29.92,North,0,0.0,0.0,38,0.00,,,0.00,WUHU216HW,2013-03-02 20:16:00,
2013-03-02 15:21:00,59.4,33.7,29.92,North,0,0.0,0.0,38,0.00,,,0.00,WUHU216HW,2013-03-02 20:21:00,
2013-03-02 15:26:00,59.6,34.6,29.92,North,0,0.0,0.0,39,0.00,,,0.00,WUHU216HW,2013-03-02 20:26:00,
2013-03-02 15:31:00,59.4,33.7,29.92,North,0,0.0,0.0,38,0.00,,,0.00,WUHU216HW,2013-03-02 20:31:00,
2013-03-02 15:36:00,59.2,33.5,29.93,North,0,0.0,0.0,38,0.00,,,0.00,WUHU216HW,2013-03-02 20:36:00,
2013-03-02 15:41:00,59.2,34.2,29.92,North,0,0.0,0.0,39,0.00,,,0.00,WUHU216HW,2013-03-02 20:41:00,
2013-03-02 15:46:00,59.0,33.3,29.92,North,0,0.0,0.0,38,0.00,,,0.00,WUHU216HW,2013-03-02 20:46:00,
2013-03-02 15:51:00,59.2,33.5,29.92,North,0,0.0,0.0,38,0.00,,,0.00,WUHU216HW,2013-03-02 20:51:00,
2013-03-02 15:56:00,59.0,32.7,29.92,North,0,0.0,0.0,37,0.00,,,0.00,WUHU216HW,2013-03-02 20:56:00,
2013-03-02 16:01:00,58.7,33.0,29.92,North,0,0.0,0.0,38,0.00,,,0.00,WUHU216HW,2013-03-02 21:01:00,
2013-03-02 16:06:00,58.7,33.0,29.92,North,0,0.0,0.0,38,0.00,,,0.00,WUHU216HW,2013-03-02 21:06:00,
2013-03-02 16:11:00,58.7,33.0,29.92,North,0,0.0,0.0,38,0.00,,,0.00,WUHU216HW,2013-03-02 21:11:00,
2013-03-02 16:16:00,58.3,32.0,29.92,North,0,0.0,0.0,37,0.00,,,0.00,WUHU216HW,2013-03-02 21:16:00,
2013-03-02 16:21:00,58.3,32.7,29.93,North,0,0.0,0.0,38,0.00,,,0.00,WUHU216HW,2013-03-02 21:21:00,
2013-03-02 16:26:00,58.0,32.4,29.92,North,0,0.0,0.0,38,0.00,,,0.00,WUHU216HW,2013-03-02 21:26:00,
2013-03-02 16:31:00,58.0,33.0,29.93,North,0,0.0,0.0,39,0.00,,,0.00,WUHU216HW,2013-03-02 21:31:00,
2013-03-02 16:36:00,58.0,33.0,29.93,North,0,0.0,0.0,39,0.00,,,0.00,WUHU216HW,2013-03-02 21:36:00,
2013-03-02 16:41:00,57.8,33.0,29.93,North,0,0.0,0.0,39,0.00,,,0.00,WUHU216HW,2013-03-02 21:41:00,
2013-03-02 16:46:00,57.6,32.8,29.93,North,0,0.0,0.0,39,0.00,,,0.00,WUHU216HW,2013-03-02 21:46:00,
2013-03-02 16:51:00,57.6,32.8,29.93,North,0,0.0,0.0,39,0.00,,,0.00,WUHU216HW,2013-03-02 21:51:00,
2013-03-02 16:56:00,57.2,33.1,29.93,North,0,0.0,0.0,40,0.00,,,0.00,WUHU216HW,2013-03-02 21:56:00,
2013-03-02 17:01:00,57.2,33.1,29.93,North,0,0.0,0.0,40,0.00,,,0.00,WUHU216HW,2013-03-02 22:01:00,
2013-03-02 17:06:00,57.2,33.7,29.94,North,0,0.0,0.0,41,0.00,,,0.00,WUHU216HW,2013-03-02 22:06:00,
2013-03-02 17:11:00,57.1,32.9,29.94,North,0,0.0,0.0,40,0.00,,,0.00,WUHU216HW,2013-03-02 22:11:00,
2013-03-02 17:16:00,57.1,33.6,29.94,North,0,0.0,0.0,41,0.00,,,0.00,WUHU216HW,2013-03-02 22:16:00,
2013-03-02 17:21:00,56.9,33.4,29.94,North,0,0.0,0.0,41,0.00,,,0.00,WUHU216HW,2013-03-02 22:21:00,
2013-03-02 17:26:00,56.7,33.8,29.95,North,0,0.0,0.0,42,0.00,,,0.00,WUHU216HW,2013-03-02 22:26:00,
2013-03-02 17:31:00,56.7,33.8,29.94,North,0,0.0,0.0,42,0.00,,,0.00,WUHU216HW,2013-03-02 22:31:00,
2013-03-02 17:36:00,56.5,34.2,29.95,North,0,0.0,0.0,43,0.00,,,0.00,WUHU216HW,2013-03-02 22:36:00,
2013-03-02 17:41:00,56.3,34.0,29.95,North,0,0.0,0.0,43,0.00,,,0.00,WUHU216HW,2013-03-02 22:41:00,
2013-03-02 17:46:00,56.3,34.0,29.95,North,0,0.0,0.0,43,0.00,,,0.00,WUHU216HW,2013-03-02 22:46:00,
2013-03-02 17:51:00,56.3,34.6,29.95,North,0,0.0,0.0,44,0.00,,,0.00,WUHU216HW,2013-03-02 22:51:00,
2013-03-02 17:56:00,56.3,34.6,29.94,North,0,0.0,0.0,44,0.00,,,0.00,WUHU216HW,2013-03-02 22:56:00,
2013-03-02 18:01:00,56.2,34.4,29.94,North,0,0.0,0.0,44,0.00,,,0.00,WUHU216HW,2013-03-02 23:01:00,
2013-03-02 18:06:00,56.2,34.4,29.94,North,0,0.0,0.0,44,0.00,,,0.00,WUHU216HW,2013-03-02 23:06:00,
2013-03-02 18:11:00,56.2,34.4,29.94,North,0,0.0,0.0,44,0.00,,,0.00,WUHU216HW,2013-03-02 23:11:00,
2013-03-02 18:16:00,55.8,34.1,29.94,North,0,0.0,0.0,44,0.00,,,0.00,WUHU216HW,2013-03-02 23:16:00,
2013-03-02 18:21:00,55.8,34.1,29.95,North,0,0.0,0.0,44,0.00,,,0.00,WUHU216HW,2013-03-02 23:21:00,
2013-03-02 18:26:00,55.6,33.9,29.95,North,0,0.0,0.0,44,0.00,,,0.00,WUHU216HW,2013-03-02 23:26:00,
2013-03-02 18:31:00,55.4,33.8,29.95,North,0,0.0,0.0,44,0.00,,,0.00,WUHU216HW,2013-03-02 23:31:00,
2013-03-02 18:36:00,55.4,33.8,29.95,North,0,0.0,0.0,44,0.00,,,0.00,WUHU216HW,2013-03-02 23:36:00,
2013-03-02 18:41:00,55.3,33.6,29.95,North,0,0.0,0.0,44,0.00,,,0.00,WUHU216HW,2013-03-02 23:41:00,
2013-03-02 18:46:00,55.3,34.1,29.95,North,0,0.0,0.0,45,0.00,,,0.00,WUHU216HW,2013-03-02 23:46:00,
2013-03-02 18:51:00,55.3,34.1,29.96,North,0,0.0,0.0,45,0.00,,,0.00,WUHU216HW,2013-03-02 23:51:00,
2013-03-02 18:56:00,55.1,33.9,29.96,North,0,0.0,0.0,45,0.00,,,0.00,WUHU216HW,2013-03-02 23:56:00,
2013-03-02 19:01:00,54.9,34.4,29.96,North,0,0.0,0.0,46,0.00,,,0.00,WUHU216HW,2013-03-03 00:01:00,
2013-03-02 19:06:00,54.9,34.4,29.96,North,0,0.0,0.0,46,0.00,,,0.00,WUHU216HW,2013-03-03 00:06:00,
2013-03-02 19:11:00,54.9,34.4,29.96,North,0,0.0,0.0,46,0.00,,,0.00,WUHU216HW,2013-03-03 00:11:00,
2013-03-02 19:16:00,54.9,34.4,29.97,North,0,0.0,0.0,46,0.00,,,0.00,WUHU216HW,2013-03-03 00:16:00,
2013-03-02 19:21:00,54.7,34.7,29.96,North,0,0.0,0.0,47,0.00,,,0.00,WUHU216HW,2013-03-03 00:21:00,
2013-03-02 19:26:00,54.7,34.7,29.96,North,0,0.0,0.0,47,0.00,,,0.00,WUHU216HW,2013-03-03 00:26:00,
2013-03-02 19:31:00,54.7,34.7,29.97,North,0,0.0,0.0,47,0.00,,,0.00,WUHU216HW,2013-03-03 00:31:00,
2013-03-02 19:36:00,54.4,33.8,29.97,North,0,0.0,0.0,46,0.00,,,0.00,WUHU216HW,2013-03-03 00:36:00,
2013-03-02 19:41:00,54.2,33.8,29.97,North,0,0.0,0.0,46,0.00,,,0.00,WUHU216HW,2013-03-03 00:41:00,
2013-03-02 19:46:00,54.0,33.6,29.97,North,0,0.0,0.0,46,0.00,,,0.00,WUHU216HW,2013-03-03 00:46:00,
2013-03-02 19:51:00,53.8,33.4,29.97,North,0,0.0,0.0,46,0.00,,,0.00,WUHU216HW,2013-03-03 00:51:00,
2013-03-02 19:56:00,53.8,33.4,29.97,North,0,0.0,0.0,46,0.00,,,0.00,WUHU216HW,2013-03-03 00:56:00,
2013-03-02 20:01:00,53.6,33.2,29.97,North,0,0.0,0.0,46,0.00,,,0.00,WUHU216HW,2013-03-03 01:01:00,
2013-03-02 20:06:00,53.6,33.2,29.97,North,0,0.0,0.0,46,0.00,,,0.00,WUHU216HW,2013-03-03 01:06:00,
2013-03-02 20:11:00,53.6,33.2,29.97,North,0,0.0,0.0,46,0.00,,,0.00,WUHU216HW,2013-03-03 01:11:00,
2013-03-02 20:16:00,53.8,33.4,29.97,North,0,0.0,0.0,46,0.00,,,0.00,WUHU216HW,2013-03-03 01:16:00,
2013-03-02 20:21:00,53.8,33.4,29.98,North,0,0.0,0.0,46,0.00,,,0.00,WUHU216HW,2013-03-03 01:21:00,
2013-03-02 20:26:00,53.8,33.4,29.98,North,0,0.0,0.0,46,0.00,,,0.00,WUHU216HW,2013-03-03 01:26:00,
2013-03-02 20:31:00,53.8,33.4,29.98,North,0,0.0,0.0,46,0.00,,,0.00,WUHU216HW,2013-03-03 01:31:00,
2013-03-02 20:36:00,53.8,33.9,29.98,North,0,0.0,0.0,47,0.00,,,0.00,WUHU216HW,2013-03-03 01:36:00,
2013-03-02 20:41:00,53.8,33.9,29.98,North,0,0.0,0.0,47,0.00,,,0.00,WUHU216HW,2013-03-03 01:41:00,
2013-03-02 20:46:00,53.6,33.8,29.98,North,0,0.0,0.0,47,0.00,,,0.00,WUHU216HW,2013-03-03 01:46:00,
2013-03-02 20:51:00,53.6,33.8,29.98,North,0,0.0,0.0,47,0.00,,,0.00,WUHU216HW,2013-03-03 01:51:00,
2013-03-02 20:56:00,53.6,33.8,29.98,North,0,0.0,0.0,47,0.00,,,0.00,WUHU216HW,2013-03-03 01:56:00,
2013-03-02 21:01:00,53.6,33.8,29.98,North,0,0.0,0.0,47,0.00,,,0.00,WUHU216HW,2013-03-03 02:01:00,
2013-03-02 21:06:00,53.5,33.7,29.98,North,0,0.0,0.0,47,0.00,,,0.00,WUHU216HW,2013-03-03 02:06:00,
2013-03-02 21:11:00,53.5,34.2,29.98,North,0,0.0,0.0,48,0.00,,,0.00,WUHU216HW,2013-03-03 02:11:00,
2013-03-02 21:16:00,53.3,34.0,29.98,North,0,0.0,0.0,48,0.00,,,0.00,WUHU216HW,2013-03-03 02:16:00,
2013-03-02 21:21:00,53.3,34.0,29.98,North,0,0.0,0.0,48,0.00,,,0.00,WUHU216HW,2013-03-03 02:21:00,
2013-03-02 21:26:00,53.3,34.0,29.98,North,0,0.0,0.0,48,0.00,,,0.00,WUHU216HW,2013-03-03 02:26:00,
2013-03-02 21:31:00,53.3,34.0,29.98,North,0,0.0,0.0,48,0.00,,,0.00,WUHU216HW,2013-03-03 02:31:00,
2013-03-02 21:36:00,53.3,34.0,29.98,North,0,0.0,0.0,48,0.00,,,0.00,WUHU216HW,2013-03-03 02:36:00,
2013-03-02 21:41:00,53.1,33.8,29.98,North,0,0.0,0.0,48,0.00,,,0.00,WUHU216HW,2013-03-03 02:41:00,
2013-03-02 21:46:00,53.1,34.4,29.98,North,0,0.0,0.0,49,0.00,,,0.00,WUHU216HW,2013-03-03 02:46:00,
2013-03-02 21:51:00,52.9,34.3,29.98,North,0,0.0,0.0,49,0.00,,,0.00,WUHU216HW,2013-03-03 02:51:00,
2013-03-02 21:56:00,52.9,34.8,29.98,North,0,0.0,0.0,50,0.00,,,0.00,WUHU216HW,2013-03-03 02:56:00,
2013-03-02 22:01:00,52.9,34.8,29.98,North,0,0.0,0.0,50,0.00,,,0.00,WUHU216HW,2013-03-03 03:01:00,
2013-03-02 22:06:00,52.7,34.7,29.98,North,0,0.0,0.0,50,0.00,,,0.00,WUHU216HW,2013-03-03 03:06:00,
2013-03-02 22:11:00,52.7,34.7,29.98,North,0,0.0,0.0,50,0.00,,,0.00,WUHU216HW,2013-03-03 03:11:00,
2013-03-02 22:16:00,52.7,35.1,29.98,North,0,0.0,0.0,51,0.00,,,0.00,WUHU216HW,2013-03-03 03:16:00,
2013-03-02 22:21:00,52.7,35.1,29.98,North,0,0.0,0.0,51,0.00,,,0.00,WUHU216HW,2013-03-03 03:21:00,
2013-03-02 22:26:00,52.6,34.9,29.97,North,0,0.0,0.0,51,0.00,,,0.00,WUHU216HW,2013-03-03 03:26:00,
2013-03-02 22:31:00,52.6,34.9,29.98,North,0,0.0,0.0,51,0.00,,,0.00,WUHU216HW,2013-03-03 03:31:00,
2013-03-02 22:36:00,52.6,34.9,29.97,North,0,0.0,0.0,51,0.00,,,0.00,WUHU216HW,2013-03-03 03:36:00,
2013-03-02 22:41:00,52.6,34.9,29.97,North,0,0.0,0.0,51,0.00,,,0.00,WUHU216HW,2013-03-03 03:41:00,
2013-03-02 22:46:00,52.6,34.9,29.97,North,0,0.0,0.0,51,0.00,,,0.00,WUHU216HW,2013-03-03 03:46:00,
2013-03-02 22:51:00,52.4,34.7,29.97,North,0,0.0,0.0,51,0.00,,,0.00,WUHU216HW,2013-03-03 03:51:00,
2013-03-02 22:56:00,52.2,34.7,29.97,North,0,0.0,0.0,51,0.00,,,0.00,WUHU216HW,2013-03-03 03:56:00,
2013-03-02 23:01:00,52.2,34.7,29.97,North,0,0.0,0.0,51,0.00,,,0.00,WUHU216HW,2013-03-03 04:01:00,
2013-03-02 23:06:00,52.0,34.9,29.97,North,0,0.0,0.0,52,0.00,,,0.00,WUHU216HW,2013-03-03 04:06:00,
2013-03-02 23:11:00,52.0,34.9,29.97,North,0,0.0,0.0,52,0.00,,,0.00,WUHU216HW,2013-03-03 04:11:00,
2013-03-02 23:16:00,51.8,34.7,29.97,North,0,0.0,0.0,52,0.00,,,0.00,WUHU216HW,2013-03-03 04:16:00,
2013-03-02 23:21:00,51.8,34.7,29.97,North,0,0.0,0.0,52,0.00,,,0.00,WUHU216HW,2013-03-03 04:21:00,
2013-03-02 23:26:00,51.8,34.7,29.97,North,0,0.0,0.0,52,0.00,,,0.00,WUHU216HW,2013-03-03 04:26:00,
2013-03-02 23:31:00,51.5,33.9,29.98,North,0,0.0,0.0,51,0.00,,,0.00,WUHU216HW,2013-03-03 04:31:00,
2013-03-02 23:36:00,50.8,33.3,29.98,North,0,0.0,0.0,51,0.00,,,0.00,WUHU216HW,2013-03-03 04:36:00,
2013-03-02 23:41:00,50.4,33.0,29.98,North,0,0.0,0.0,51,0.00,,,0.00,WUHU216HW,2013-03-03 04:41:00,
2013-03-02 23:46:00,50.0,32.7,29.99,North,0,0.0,0.0,51,0.00,,,0.00,WUHU216HW,2013-03-03 04:46:00,
2013-03-02 23:51:00,49.9,32.9,29.99,North,0,0.0,0.0,52,0.00,,,0.00,WUHU216HW,2013-03-03 04:51:00,
2013-03-02 23:56:00,49.7,32.3,29.99,North,0,0.0,0.0,51,0.00,,,0.00,WUHU216HW,2013-03-03 04:56:00,